Temperature
23 22 21 22 28 32 32 32 32 32 32 31 30 30 31 30 30 28 23 23 22 22 22 22 21 21 20 20 20 20 20 20 20 20 20 20 20 20 20 20 20 20 20 20 20 20 20 20 20
22 21 22 26 32 32 31 32 32 32 31 30 29 29 30 28 25 23 22 22 22 22 22 22 21 21 20 20 20 20 20 20 20 20 20 20 20 20 20 20 20 20 20 20 20 20 20 20 20
23 22 25 31 33 32 32 32 32 31 30 30 30 29 29 27 24 23 22 22 21 21 21 22 22 21 21 20 20 20 20 20 20 20 20 20 20 20 20 20 20 20 20 20 20 20 20 20 19
22 24 28 32 33 32 32 32 32 32 31 30 30 29 27 23 24 22 22 22 21 21 21 22 22 21 21 20 20 20 20 20 20 20 20 20 20 20 20 20 19 19 19 19 19 19 19 19 19
23 29 32 33 33 33 33 32 32 33 32 31 30 30 26 22 23 22 22 22 21 21 21 21 22 21 21 21 20 20 20 20 20 20 20 20 19 19 19 19 19 19 19 19 19 19 19 19 18
28 31 33 33 32 33 33 32 32 33 32 30 30 30 26 22 22 22 22 22 22 21 21 21 22 21 21 21 20 20 20 20 20 20 19 19 19 19 19 19 19 19 19 19 19 19 19 19 18
30 33 33 33 32 32 32 32 32 33 32 31 30 30 26 24 23 22 22 22 22 22 21 20 21 21 21 21 20 20 20 20 20 20 19 19 19 19 19 19 19 19 19 19 19 19 19 19 18
29 32 33 33 32 32 32 32 32 32 31 29 30 31 28 24 22 22 22 21 22 21 21 20 20 19 20 20 20 20 20 20 20 19 19 19 19 19 19 19 19 19 19 19 19 19 19 19 19
28 32 33 33 33 33 32 33 32 31 30 29 29 29 27 24 22 22 21 21 21 20 20 20 20 19 19 19 19 20 20 20 20 19 19 19 19 18 18 18 19 19 19 19 19 19 19 19 19
30 32 33 32 32 33 32 32 32 32 31 29 28 25 24 23 22 22 22 22 21 20 20 20 20 19 19 19 19 19 19 19 19 18 18 18 18 18 18 18 19 19 19 19 19 19 19 19 18
31 31 32 32 31 31 32 33 32 33 33 32 29 26 24 24 23 23 23 22 21 20 20 20 19 19 19 19 19 19 19 19 18 18 18 19 18 18 18 18 18 19 19 19 18 18 18 18 18
30 30 30 31 30 30 32 32 33 33 33 31 30 27 25 24 24 24 23 22 21 21 20 20 20 19 19 19 19 19 18 18 18 18 18 18 18 18 18 18 18 18 18 18 18 18 17 17 17
29 30 30 30 30 30 30 32 32 33 31 29 28 26 25 25 25 24 23 22 21 21 20 20 20 20 20 20 19 18 18 18 18 18 18 18 18 18 18 18 18 18 18 18 18 18 17 17 17
29 29 30 30 30 30 31 32 32 32 30 28 27 26 26 26 25 24 23 22 22 21 21 20 20 20 20 20 20 19 19 19 18 18 18 18 18 18 18 18 18 18 18 18 18 18 18 18 18
28 29 31 31 31 30 30 32 32 31 29 28 27 26 26 25 24 24 23 22 22 21 21 20 20 20 20 20 20 19 19 19 18 18 18 18 18 18 18 18 18 18 18 18 18 18 18 18 18
30 30 30 31 31 30 30 31 32 29 29 28 27 26 25 24 24 23 23 22 22 22 21 20 20 20 19 19 19 19 19 18 18 18 18 17 17 17 17 17 17 17 17 18 18 18 18 18 18
29 30 30 31 31 30 30 31 30 28 29 28 27 26 25 23 23 23 22 22 22 21 21 20 20 19 19 19 19 19 19 18 18 18 17 17 17 17 17 17 17 17 17 17 17 17 17 17 17
29 30 29 30 30 30 30 30 29 28 28 28 27 26 24 24 23 22 22 22 21 21 20 20 20 19 19 19 19 19 19 18 18 18 17 17 17 16 16 16 16 16 16 16 16 16 16 17 17
29 29 29 29 29 29 29 29 29 28 28 27 27 26 24 24 23 22 22 22 21 21 21 20 20 20 20 19 19 19 19 19 18 18 17 17 16 16 16 16 16 15 16 16 16 16 16 16 16
29 28 29 29 29 29 29 29 29 28 28 27 27 25 24 24 22 22 22 22 22 22 21 21 20 20 20 19 19 19 19 18 18 17 17 16 16 16 16 15 15 15 15 15 15 15 15 16 16
28 28 28 28 28 29 28 28 29 29 27 26 26 25 25 24 23 23 22 22 22 22 21 21 20 20 20 20 19 19 19 18 18 17 17 16 16 16 15 15 15 15 15 15 15 15 15 15 16
28 28 28 27 27 28 28 27 29 29 28 28 26 25 25 24 24 23 23 23 22 22 21 20 20 20 20 20 19 19 19 19 18 17 17 16 15 15 15 15 15 15 15 14 14 14 14 14 15
28 28 27 27 27 27 28 27 28 28 27 28 27 26 25 24 23 23 22 22 22 21 20 20 20 20 20 20 19 19 18 18 18 17 16 16 15 15 14 14 14 14 14 14 14 14 14 14 14
27 27 27 27 27 26 26 26 27 27 26 27 26 24 23 22 22 21 21 21 21 20 20 19 19 20 20 20 19 19 19 18 18 17 16 16 15 14 14 14 14 14 14 14 14 14 14 14 13
28 27 26 26 26 26 26 26 26 25 24 24 23 22 21 19 19 18 19 19 19 19 19 19 19 20 19 19 19 19 18 18 17 16 16 15 15 15 14 14 14 14 14 14 14 14 14 14 14
27 26 25 25 25 26 27 26 25 23 21 20 19 18 17 16 15 15 15 15 16 16 17 17 18 18 18 18 18 18 18 17 17 16 16 15 15 15 14 14 14 14 14 13 13 13 13 13 14
27 27 27 26 26 25 26 26 25 22 20 18 17 16 15 15 14 14 14 14 13 14 14 14 15 16 16 17 17 18 17 17 16 16 16 15 15 14 14 14 14 14 13 13 14 13 13 13 13
26 26 26 25 24 24 25 26 24 20 19 17 16 15 14 14 14 13 13 13 13 13 12 12 13 13 14 14 15 16 16 16 16 16 15 15 15 15 14 14 14 13 13 13 13 13 13 13 13
26 26 25 26 25 24 24 24 18 17 16 16 15 14 14 14 13 13 13 12 12 12 12 12 12 12 13 13 13 14 14 14 15 15 15 15 15 15 14 14 13 13 13 13 13 13 13 13 13
26 25 25 24 23 24 23 22 16 15 15 14 14 14 13 13 13 13 12 12 12 11 11 11 11 11 11 11 12 12 12 13 13 14 14 14 14 14 14 13 13 13 13 13 13 13 13 13 13
Wind_Speed
9 7 5 5 5 3 8 7 5 5 5 6 4 2 3 4 4 4 6 15 16 18 21 21 18 17 16 15 14 15 15 15 15 15 14 13 12 11 11 10 9 8 8 8 7 7 6 6 7
4 5 5 5 4 7 7 5 5 7 6 4 4 3 3 6 6 6 10 15 18 19 20 20 20 17 16 15 15 15 14 14 14 13 12 11 10 10 10 10 9 8 8 7 6 6 6 6 6
5 6 5 4 2 6 8 6 5 5 4 3 4 4 4 5 5 5 11 18 18 17 18 19 20 18 16 15 14 14 14 14 13 12 12 11 10 9 9 8 8 7 7 6 6 5 5 5 5
4 5 5 5 6 6 4 4 2 3 3 4 3 6 5 6 3 8 16 18 18 17 17 20 20 18 17 15 14 13 13 13 12 12 11 11 10 9 9 8 8 7 6 6 5 5 5 5 5
5 5 6 5 6 5 2 1 1 1 3 5 4 6 7 5 7 14 17 18 17 17 16 20 20 18 17 16 14 13 12 12 12 11 10 10 9 9 9 8 8 7 7 6 6 6 5 5 6
5 5 7 6 6 4 2 1 2 2 2 3 4 7 6 7 10 15 17 16 16 16 16 19 19 18 17 16 15 14 13 12 12 11 11 10 9 9 9 9 9 8 8 8 8 7 7 7 7
7 6 5 5 6 5 2 1 3 2 1 2 3 6 8 10 12 14 15 14 14 14 14 16 18 17 17 15 15 14 13 13 12 12 11 11 10 10 10 10 10 10 10 10 10 10 10 10 10
5 5 6 6 7 5 2 1 2 3 2 4 3 4 8 13 13 14 13 13 12 13 13 13 15 16 16 16 15 14 14 14 13 13 13 12 12 12 12 12 13 12 12 12 12 12 12 12 12
4 7 8 5 4 4 3 1 3 2 5 4 3 5 11 19 16 15 13 12 11 11 11 12 13 13 14 14 16 16 15 15 15 15 15 14 14 14 14 15 11 11 13 14 14 14 14 14 15
5 9 4 2 2 2 3 2 2 6 7 7 8 10 16 19 17 15 14 13 13 12 12 12 12 12 12 12 12 13 15 15 16 14 15 14 13 11 11 6 9 13 14 15 17 17 16 16 15
5 6 2 1 4 6 4 3 3 7 8 7 10 15 19 19 16 15 13 12 11 12 11 12 11 10 11 9 9 10 10 10 13 14 13 12 11 11 11 10 10 13 14 14 14 15 14 14 12
5 5 5 6 6 7 7 5 5 7 3 3 6 17 20 19 17 15 13 11 10 10 11 11 11 10 10 9 8 8 9 8 9 11 13 11 8 9 9 8 10 9 9 9 10 10 12 12 13
7 6 5 6 9 9 10 10 8 7 2 3 10 18 19 18 16 13 11 10 9 9 10 10 10 10 9 8 8 8 8 9 9 9 10 11 9 9 9 8 9 10 10 10 9 10 11 11 12
5 8 9 7 6 5 8 11 10 7 1 6 12 16 18 17 16 14 11 10 9 9 9 9 10 10 9 8 8 8 8 8 9 9 11 11 10 9 9 10 9 10 11 11 10 11 11 11 10
6 9 8 5 3 3 7 13 12 6 4 8 12 14 16 15 14 13 12 10 10 9 9 9 9 10 10 10 10 8 8 9 8 8 10 11 11 11 10 10 11 11 12 12 10 12 11 11 12
7 10 11 4 2 1 7 15 3 3 7 9 11 13 15 13 13 11 10 9 9 8 9 9 8 9 9 8 8 7 7 7 6 7 8 9 9 10 9 9 10 10 11 9 10 11 11 12 12
8 10 8 4 3 3 5 9 3 3 6 9 11 13 13 12 12 11 10 9 8 8 7 8 8 7 7 6 6 6 5 6 5 6 5 5 6 6 6 7 7 8 8 9 11 10 11 12 13
4 6 6 4 3 5 4 4 2 1 4 8 10 11 12 12 11 10 9 7 7 6 6 6 7 6 5 4 4 4 4 5 5 4 3 4 4 5 7 8 8 9 9 9 10 11 11 12 12
2 5 5 2 4 6 5 5 2 1 5 8 10 11 11 10 9 9 8 8 8 7 7 6 6 6 4 3 3 3 4 4 4 4 3 4 5 5 6 8 8 9 10 11 13 13 14 13 12
3 5 5 4 2 7 8 9 5 4 5 6 9 10 11 10 10 10 9 8 8 8 7 7 7 6 5 4 3 3 4 5 5 5 4 5 5 6 7 7 9 10 10 12 13 13 13 13 12
4 6 6 8 8 8 9 13 9 7 7 7 8 10 11 11 11 11 11 10 9 8 7 6 6 6 6 5 5 4 5 6 6 6 5 4 5 7 7 8 10 10 12 12 12 12 15 14 14
7 4 6 8 11 12 7 13 10 6 9 9 9 9 10 10 10 10 10 10 9 7 6 6 7 7 7 7 7 7 7 7 7 6 5 5 6 7 7 8 9 10 11 11 12 12 13 14 14
7 4 7 10 11 12 8 9 6 1 7 7 6 5 6 7 7 6 6 6 5 4 5 6 7 8 8 8 8 8 9 7 6 6 6 7 7 6 7 8 9 9 10 11 11 12 13 12 14
3 5 8 9 9 6 1 7 4 5 7 7 4 2 1 0 2 1 1 2 3 5 6 8 8 9 9 9 9 9 9 8 8 8 8 7 7 6 7 7 8 10 10 10 11 12 13 13 14
6 10 8 7 5 2 1 7 3 10 11 11 10 10 9 11 11 12 11 10 9 9 9 10 9 9 8 9 9 9 9 9 9 9 8 8 8 7 6 8 9 10 10 11 12 12 13 13 14
9 9 9 9 8 8 5 4 6 14 16 16 17 17 18 18 16 16 15 14 13 13 13 11 10 9 7 7 7 7 8 8 8 8 8 8 8 8 8 9 10 11 12 12 11 12 12 12 12
7 6 7 10 13 12 7 2 6 15 16 16 17 18 18 17 17 16 16 16 16 16 16 15 13 10 8 7 6 7 8 9 9 8 9 9 8 8 9 10 11 11 11 12 12 11 12 12 12
4 6 6 7 8 10 7 7 2 11 12 14 15 16 16 16 16 16 15 16 16 16 16 16 15 14 13 11 9 8 9 9 9 10 10 10 10 10 10 11 11 11 11 11 11 11 11 11 11
3 2 4 7 7 10 14 5 6 9 9 10 12 13 14 15 15 15 14 15 15 15 15 15 15 15 15 15 14 13 11 11 10 10 11 11 11 11 11 11 11 11 11 11 11 11 11 11 11
4 4 4 6 8 9 13 3 8 8 8 9 10 12 13 14 14 15 15 14 14 15 15 15 15 15 15 15 15 14 14 13 12 12 13 12 12 12 12 11 11 11 11 11 11 11 10 9 9
Wind_Direction
183 191 216 231 238 142 89 89 70 57 54 45 47 40 22 27 360 63 116 147 146 146 146 154 158 156 152 149 146 142 141 140 141 142 144 146 147 147 147 146 143 140 137 136 134 130 126 124 125
198 196 222 242 238 112 106 99 79 51 65 71 73 72 67 67 48 96 136 147 149 148 149 157 157 159 156 153 152 150 148 146 146 147 149 151 153 154 155 156 157 156 152 150 148 145 141 140 142
207 222 258 251 158 112 114 109 77 85 77 33 59 55 55 57 83 119 140 149 150 146 150 150 158 161 159 158 157 156 155 154 154 155 157 160 163 166 168 169 170 172 172 171 170 168 165 164 166
214 227 242 240 134 101 102 101 85 118 81 56 78 88 82 49 74 126 142 150 149 150 154 151 162 163 163 163 163 163 163 163 164 165 167 171 174 178 182 184 187 190 193 196 196 195 192 195 197
245 256 241 195 131 118 126 30 232 118 56 64 76 95 92 71 98 132 146 152 154 156 155 154 164 165 166 168 169 170 171 172 174 176 179 183 187 192 196 199 202 205 211 218 223 223 222 223 229
251 251 237 178 136 136 134 183 223 156 93 101 105 105 100 115 132 144 151 159 158 159 160 153 164 168 170 172 174 177 179 182 185 188 191 197 203 209 216 218 220 222 225 230 235 238 240 239 240
283 274 238 183 158 151 67 279 231 181 175 120 120 110 125 141 143 150 154 162 162 163 162 159 168 172 175 178 181 184 187 191 196 200 203 207 213 219 227 233 234 234 235 238 241 243 246 247 247
288 271 216 193 178 144 74 243 238 237 150 121 158 130 147 151 152 152 154 163 168 168 171 169 176 175 181 184 187 192 196 200 205 210 213 216 220 224 228 236 232 234 239 243 247 250 253 253 252
268 253 216 184 173 125 51 240 175 197 142 145 115 68 119 141 151 155 159 164 173 177 181 183 182 181 190 193 185 195 202 207 211 214 216 222 231 230 221 227 225 235 244 248 250 253 256 257 250
252 247 200 81 340 352 356 305 235 196 183 166 135 113 131 145 157 164 167 172 178 184 188 192 194 187 199 203 192 207 212 210 217 225 220 223 234 245 250 222 222 244 252 255 252 252 255 254 253
256 267 332 303 327 322 299 264 235 236 216 196 175 155 154 156 165 171 172 174 174 182 188 192 198 195 207 212 217 220 226 225 227 232 234 239 247 247 249 249 230 232 239 249 248 244 249 254 257
266 274 296 304 321 308 295 280 251 246 280 58 161 159 161 164 169 172 170 168 165 177 183 192 194 202 214 226 229 234 239 234 236 234 237 242 248 255 258 257 262 259 251 250 260 261 259 262 268
252 273 291 293 292 289 282 268 271 262 298 114 146 157 165 166 167 169 164 163 164 175 183 189 197 204 212 224 245 246 252 255 244 244 243 244 249 257 261 265 266 269 269 263 260 266 270 268 268
291 290 278 276 282 265 264 260 253 259 185 150 156 164 168 166 165 163 167 172 177 182 185 189 200 205 212 220 231 246 252 251 262 256 254 256 258 262 264 264 264 265 265 267 267 265 267 266 267
282 274 252 228 269 265 265 252 242 272 225 180 168 166 164 163 165 171 176 182 186 190 193 198 205 208 215 226 234 243 250 251 254 259 264 264 263 265 265 267 265 263 261 259 259 262 261 259 259
249 248 241 196 323 268 254 258 221 291 218 194 175 167 164 166 174 180 183 191 197 201 201 209 217 214 219 233 249 260 265 269 272 278 278 279 278 272 271 268 269 270 265 260 257 255 256 255 254
224 238 243 219 28 339 271 277 353 297 216 195 183 175 170 170 180 185 191 196 202 208 211 214 219 222 225 236 247 260 269 275 275 276 283 292 293 296 287 283 284 282 274 269 267 265 262 263 261
226 242 235 255 8 338 320 316 338 280 215 195 187 182 179 179 180 182 187 187 187 191 196 201 200 205 213 221 230 251 260 265 266 272 276 286 291 298 302 292 294 292 284 278 273 275 267 266 266
281 262 255 281 352 317 322 321 321 201 205 198 196 191 192 189 175 177 174 170 166 163 169 176 176 170 186 198 231 242 257 265 265 265 271 278 292 301 295 295 297 286 284 285 285 280 273 266 264
263 261 261 250 305 307 304 296 275 233 227 222 211 204 203 194 187 182 174 169 164 158 162 167 174 173 191 192 229 259 288 279 283 278 266 274 290 298 294 298 293 289 288 280 276 274 274 273 262
286 290 299 304 306 268 282 275 240 224 227 232 233 226 217 211 202 185 177 174 172 168 175 184 187 194 210 214 229 234 244 255 254 259 258 272 295 298 301 296 293 295 287 283 281 278 270 269 267
298 311 295 295 294 295 295 292 276 251 245 238 235 232 227 219 209 187 181 183 184 183 192 205 213 219 222 227 241 254 270 283 294 290 288 289 284 291 293 291 290 289 288 286 279 273 272 268 266
319 323 282 290 292 289 274 280 294 220 274 259 245 243 240 222 202 185 193 195 202 216 230 233 235 235 232 234 240 249 259 273 279 280 275 279 282 280 284 290 293 290 286 287 285 281 272 268 265
296 262 256 256 266 268 13 306 308 24 359 346 358 7 352 31 79 66 17 322 301 292 279 267 255 249 241 235 240 244 258 266 274 274 282 278 282 280 280 289 290 288 290 289 283 278 274 268 265
277 286 284 271 255 301 71 293 8 42 32 25 26 35 42 40 34 28 19 5 350 336 320 304 288 272 257 244 242 243 248 253 255 264 271 278 289 289 293 295 294 293 293 289 286 281 277 273 267
302 288 281 293 298 306 286 275 69 64 53 51 51 50 48 47 43 39 33 27 17 9 358 345 327 307 291 269 259 254 250 252 256 253 272 279 286 293 302 293 291 293 293 293 291 288 280 275 270
304 287 307 286 280 280 280 237 122 64 56 51 50 50 47 44 42 38 34 30 26 22 17 11 4 355 343 322 297 271 258 257 260 259 255 266 271 281 283 287 290 292 294 294 295 290 288 282 274
320 311 285 281 288 287 279 260 335 30 38 44 42 41 37 34 32 30 26 23 20 18 17 15 14 11 4 352 334 311 288 271 262 259 261 264 268 270 275 280 286 290 292 292 294 294 293 291 283
292 277 300 285 286 290 291 303 52 47 43 37 35 29 24 19 17 14 12 9 7 6 7 6 6 5 3 359 350 337 321 302 284 271 265 261 260 260 262 270 278 284 289 293 294 296 298 296 293
288 318 316 305 295 282 283 299 75 67 49 28 15 8 3 359 356 354 354 354 355 355 354 354 352 353 351 350 347 345 337 327 311 294 282 271 262 256 254 259 266 274 282 290 293 296 302 301 297
Height
1512 1512 1513 1515 1508 1495 1501 1498 1495 1495 1494 1500 1501 1501 1501 1503 1506 1515 1519 1519 1522 1524 1526 1529 1531 1534 1537 1540 1543 1545 1547 1548 1550 1551 1552 1553 1554 1555 1555 1556 1557 1557 1558 1558 1559 1559 1560 1560 1560
1514 1514 1516 1513 1497 1503 1507 1498 1497 1498 1501 1503 1504 1505 1505 1508 1513 1516 1517 1520 1523 1526 1527 1530 1532 1535 1538 1541 1544 1546 1548 1549 1551 1552 1553 1554 1555 1556 1556 1557 1558 1558 1559 1559 1560 1560 1560 1560 1561
1514 1515 1516 1502 1493 1501 1503 1498 1499 1501 1503 1504 1505 1507 1509 1512 1516 1517 1518 1520 1524 1527 1529 1531 1533 1536 1539 1542 1544 1547 1548 1550 1551 1552 1553 1554 1555 1556 1557 1557 1558 1558 1559 1559 1560 1560 1560 1560 1560
1517 1517 1512 1500 1496 1497 1497 1497 1500 1500 1503 1505 1506 1508 1513 1517 1517 1517 1519 1522 1526 1528 1531 1532 1534 1537 1540 1543 1545 1547 1549 1550 1551 1552 1553 1554 1555 1556 1556 1557 1557 1558 1558 1559 1559 1559 1559 1560 1560
1518 1513 1501 1496 1496 1497 1498 1500 1501 1499 1502 1505 1506 1509 1515 1518 1517 1518 1521 1524 1528 1531 1533 1533 1535 1538 1541 1543 1546 1547 1549 1550 1551 1552 1553 1554 1555 1555 1556 1556 1557 1557 1558 1558 1558 1558 1558 1558 1559
1516 1507 1499 1498 1499 1498 1498 1500 1500 1500 1503 1506 1507 1509 1516 1519 1519 1521 1524 1527 1530 1532 1534 1534 1536 1539 1541 1544 1546 1547 1548 1550 1551 1552 1553 1554 1554 1555 1555 1556 1556 1556 1557 1557 1557 1557 1557 1557 1557
1514 1501 1496 1496 1499 1499 1499 1500 1499 1500 1503 1505 1508 1509 1516 1520 1521 1523 1525 1528 1531 1534 1536 1535 1537 1539 1541 1543 1545 1547 1548 1549 1550 1551 1552 1553 1553 1554 1554 1554 1554 1555 1555 1555 1556 1556 1556 1556 1556
1514 1503 1498 1496 1499 1500 1500 1500 1500 1500 1503 1507 1508 1508 1514 1519 1521 1524 1526 1529 1531 1534 1536 1537 1539 1540 1541 1543 1544 1546 1547 1548 1549 1550 1551 1551 1552 1552 1552 1553 1553 1553 1553 1553 1553 1554 1554 1554 1553
1514 1505 1498 1497 1498 1499 1500 1499 1500 1502 1504 1507 1509 1510 1513 1516 1520 1524 1526 1529 1531 1533 1535 1537 1540 1540 1542 1544 1544 1545 1546 1547 1547 1548 1548 1549 1550 1551 1551 1551 1551 1551 1551 1551 1551 1551 1551 1551 1551
1511 1502 1497 1500 1500 1499 1501 1500 1499 1499 1502 1506 1509 1511 1513 1516 1520 1523 1526 1528 1529 1531 1533 1536 1539 1539 1541 1543 1543 1544 1545 1545 1545 1546 1547 1547 1548 1548 1549 1549 1548 1548 1548 1548 1548 1548 1548 1548 1548
1508 1502 1501 1502 1503 1503 1500 1499 1499 1497 1495 1500 1505 1510 1512 1516 1519 1523 1525 1528 1529 1530 1533 1535 1536 1537 1539 1541 1542 1543 1544 1543 1543 1544 1544 1544 1545 1545 1546 1546 1546 1545 1545 1545 1546 1545 1545 1545 1546
1509 1506 1507 1505 1505 1504 1501 1498 1497 1497 1496 1501 1504 1507 1510 1514 1518 1522 1525 1527 1529 1530 1532 1534 1535 1535 1536 1539 1540 1540 1541 1541 1541 1540 1541 1541 1541 1541 1542 1542 1542 1543 1542 1542 1542 1542 1542 1541 1541
1508 1506 1507 1506 1505 1504 1502 1499 1498 1497 1499 1502 1504 1506 1510 1514 1518 1521 1524 1526 1528 1529 1531 1533 1533 1534 1535 1536 1536 1537 1537 1538 1538 1537 1538 1538 1538 1537 1538 1537 1537 1537 1538 1538 1537 1537 1537 1537 1536
1508 1508 1505 1504 1503 1503 1502 1498 1498 1497 1500 1502 1504 1507 1510 1513 1517 1520 1523 1525 1527 1529 1531 1532 1532 1533 1533 1534 1534 1534 1534 1534 1534 1534 1534 1534 1533 1533 1533 1532 1532 1532 1532 1532 1531 1531 1531 1531 1531
1509 1506 1500 1499 1500 1500 1501 1496 1495 1497 1500 1502 1504 1507 1510 1513 1516 1519 1522 1524 1526 1528 1529 1530 1531 1532 1532 1532 1532 1532 1531 1531 1531 1530 1530 1529 1529 1529 1528 1527 1527 1527 1527 1526 1526 1525 1525 1525 1525
1504 1502 1500 1495 1498 1499 1501 1496 1490 1498 1499 1501 1504 1507 1509 1512 1516 1518 1521 1523 1525 1526 1527 1528 1530 1530 1530 1530 1529 1529 1529 1528 1528 1527 1526 1526 1525 1525 1524 1523 1522 1522 1521 1521 1520 1520 1519 1519 1518
1502 1501 1498 1496 1497 1496 1496 1493 1494 1497 1498 1500 1503 1506 1509 1512 1515 1517 1519 1520 1522 1524 1525 1526 1526 1527 1527 1527 1527 1527 1526 1525 1525 1524 1524 1523 1522 1521 1521 1520 1518 1517 1516 1515 1515 1514 1513 1513 1512
1503 1500 1501 1499 1497 1496 1496 1495 1496 1498 1498 1499 1503 1506 1509 1511 1513 1515 1516 1518 1519 1521 1522 1523 1523 1524 1525 1526 1525 1525 1524 1524 1524 1523 1522 1521 1520 1519 1517 1517 1515 1513 1512 1511 1510 1508 1508 1507 1506
1503 1503 1503 1500 1499 1498 1498 1496 1495 1497 1498 1499 1501 1504 1507 1509 1511 1513 1514 1515 1517 1518 1520 1521 1522 1523 1523 1524 1525 1524 1524 1523 1522 1521 1519 1518 1517 1515 1513 1513 1511 1509 1508 1506 1505 1504 1503 1502 1501
1503 1504 1503 1500 1499 1500 1499 1496 1493 1496 1497 1498 1499 1502 1505 1507 1509 1510 1511 1514 1516 1517 1519 1520 1521 1522 1522 1523 1522 1522 1521 1521 1520 1519 1517 1515 1513 1511 1510 1507 1506 1504 1502 1500 1498 1497 1497 1496 1496
1504 1504 1503 1504 1500 1498 1500 1497 1491 1492 1496 1498 1499 1500 1503 1505 1507 1508 1511 1513 1515 1517 1519 1520 1520 1520 1521 1521 1521 1520 1519 1518 1517 1516 1514 1512 1510 1508 1505 1503 1501 1498 1496 1495 1493 1491 1490 1489 1489
1505 1501 1504 1505 1506 1501 1500 1508 1489 1487 1491 1494 1496 1498 1501 1503 1506 1508 1510 1513 1515 1516 1517 1518 1518 1518 1518 1518 1519 1519 1518 1517 1515 1513 1512 1509 1506 1503 1501 1498 1496 1493 1491 1489 1486 1485 1483 1482 1481
1503 1503 1503 1503 1504 1505 1499 1504 1491 1489 1492 1490 1493 1497 1500 1503 1505 1508 1510 1512 1514 1516 1516 1516 1515 1515 1515 1516 1516 1515 1515 1513 1512 1510 1507 1504 1503 1499 1497 1494 1492 1489 1486 1484 1481 1478 1476 1475 1474
1504 1504 1502 1501 1500 1509 1504 1508 1500 1492 1496 1493 1495 1499 1502 1504 1506 1508 1509 1512 1514 1514 1515 1514 1513 1513 1512 1512 1512 1511 1511 1509 1508 1506 1504 1502 1500 1497 1494 1491 1488 1485 1483 1479 1476 1473 1471 1469 1467
1503 1507 1512 1510 1507 1506 1501 1504 1502 1501 1503 1503 1503 1503 1505 1506 1507 1507 1509 1510 1511 1511 1511 1511 1509 1508 1508 1508 1507 1507 1506 1505 1504 1502 1501 1499 1497 1495 1491 1488 1484 1482 1479 1476 1472 1469 1466 1463 1461
1502 1506 1516 1522 1515 1504 1496 1501 1501 1507 1511 1512 1512 1512 1511 1512 1512 1511 1511 1511 1510 1508 1507 1505 1504 1503 1502 1502 1502 1502 1501 1501 1500 1498 1497 1495 1493 1491 1487 1484 1481 1478 1475 1472 1469 1465 1462 1459 1456
1503 1500 1498 1506 1505 1509 1499 1495 1499 1510 1515 1518 1519 1518 1518 1518 1517 1516 1515 1513 1511 1508 1505 1503 1501 1499 1498 1497 1496 1496 1496 1495 1494 1493 1491 1490 1488 1486 1483 1480 1477 1474 1471 1468 1465 1461 1457 1454 1451
1505 1502 1503 1506 1516 1515 1501 1498 1501 1514 1519 1523 1524 1524 1523 1522 1520 1519 1517 1515 1512 1510 1506 1503 1500 1497 1495 1493 1492 1492 1491 1489 1488 1487 1486 1484 1483 1481 1479 1476 1474 1471 1468 1465 1461 1458 1454 1450 1447
1505 1505 1505 1502 1507 1517 1514 1506 1523 1525 1528 1528 1529 1528 1527 1525 1523 1520 1518 1515 1513 1510 1507 1503 1499 1496 1493 1490 1488 1486 1485 1484 1482 1481 1480 1479 1477 1476 1474 1472 1470 1467 1465 1462 1458 1454 1450 1446 1443
1504 1504 1506 1514 1511 1507 1509 1515 1528 1530 1532 1533 1532 1531 1529 1526 1523 1521 1518 1515 1511 1508 1504 1501 1498 1495 1492 1489 1486 1483 1480 1478 1476 1475 1474 1473 1471 1470 1469 1467 1465 1463 1461 1458 1454 1451 1447 1443 1439